Rbgn^[z[y[W
メイン
   新天体発見情報
     Comet C/2023 H2 (Lemmon)
投稿するにはまず登録を

フラット表示 前のトピック | 次のトピック
投稿者 スレッド
佐藤裕久
投稿日時: 2023-5-31 0:31
モデレータ
登録日: 2005-6-12
居住地: 日本
投稿: 2585
オンライン
Comet C/2023 H2 (Lemmon)

4月23日、Mt Lemmonサーベイの1.5-m 反射望遠鏡で得たCCD画像から小惑星状天体が発見された。
小惑星センターのPCCP webpageに公表後、他のCCD位置観測者によって彗星状であることがわかっ
た。
R. Weryk (西オンタリオ大学,物理および天文学科)によると、3月26.6日UT、Haleakalaにある
Pan-STARRS1の1.8-m Ritchey-Chretien 反射望遠鏡(21.9-22.2等)で得た画像と、4月18.43-
18.46日、HaleakalaにあるPan-STARRS2の1.8-m Ritchey-Chretien 反射望遠鏡(20.9-21.6等)で
得た発見前の画像を確認した。
佐藤英貴氏(東京都文京区、4月26.4日, 60-秒CCD露出24枚のスタック, 0.51-m f/6.8 アストロ
グラフ, Utah Desert Remote 天文台, Junction近郊, ユタ州, 米国)は、恒星状にしか見えな
かった。4".9の円形範囲で測定した光度は20.5等であった。
Q.-z. Ye (メリーランド大学天文学科: 5月14.19日、アリゾナ州 Happy Jackにある4.3-m Lowell
Lowell Discovery 望遠鏡て得た観測から、12"のコマが見えた。尾はない)らCCD観測者によって
彗星状と観測された。

彗星機能は次のとおり、

OC   Date        Reporter           Coma    Tail    PA          Exposures
G37  2023-05-14  Q.-Z. Ye           12"
G00  2023-05-21  M. Jaeger           8"                          13x130s

発見位置は次のとおり、

     2023 UT             R.A. (2000) Decl.       Mag.
     Apr. 23.27971   14 09 31.46   +38 04 52.6   20.7
          23.28403   14 09 30.82   +38 04 58.4   20.8
          23.28836   14 09 30.32   +38 05 04.3   21.3
          23.29274   14 09 29.79   +38 05 10.9
          23.30088   14 09 28.69   +38 05 21.5   20.6
          23.30301   14 09 28.40   +38 05 24.6   21.1
          23.30512   14 09 28.14   +38 05 27.1   21.2

MPCの楕円軌道要素、位置推算表は次のとおり、

Orbital elements:
    C/2023 H2 (Lemmon)                                                          
Epoch 2023 Feb. 25.0 TT = JDT 2460000.5                                         
T 2023 Oct. 29.17838 TT                                 Rudenko                 
q   0.8944135            (2000.0)            P               Q                  
z  +0.0040248      Peri.  150.64405     +0.57676636     +0.60276900             
 +/-0.0000113      Node   217.04125     +0.44782104     +0.33119919             
e   0.9964002      Incl.  113.75075     +0.68322536     -0.72593156             
From 71 observations 2023 Mar. 26-May 22, mean residual 0".4.                   
                                                                                
Ephemeris:
Date    TT    R. A. (2000) Decl.     Delta      r    Elong.  Phase   m1
2023 04 24    14 07 57.5 +38 21 09   2.2296  2.9676   129.0    15.3  20.5
...
2023 05 09    13 32 16.5 +43 06 46   2.1909  2.7897   116.4    18.9  20.2
...
2023 05 17    13 12 11.4 +44 50 07   2.1970  2.6936   108.5    20.9  20.0
...
2023 05 23    12 57 29.8 +45 44 22   2.2105  2.6209   102.4    22.2  19.9
2023 05 24    12 55 06.9 +45 51 34   2.2133  2.6088   101.3    22.4  19.9
2023 05 25    12 52 45.4 +45 58 16   2.2163  2.5966   100.3    22.6  19.9
...
2023 05 31    12 39 11.8 +46 28 35   2.2365  2.5233    94.3    23.6  19.8
...
2023 06 08    12 23 00.6 +46 46 00   2.2674  2.4247    86.4    24.7  19.6
...
2023 06 23    11 59 30.7 +46 28 36   2.3236  2.2377    72.4    25.7  19.3

(MPEC 2023-K122、CBET 5264)

フラット表示 前のトピック | 次のトピック

題名 投稿者 日時
 » Comet C/2023 H2 (Lemmon) 佐藤裕久 2023-5-31 0:31

投稿するにはまず登録を
 
© 1999 Tsutomu Seki.